Hutchinson, MN

12:01 PM CDT on June 29, 2017 (GMT -0500)
Hutchinson Municipal-Butler

Weather History for KHCD - May, 2013

Change the Weather History Date:

Sunday, May 12, 2013

  Actual Average Record
Temperature  
Mean Temperature 43 °F -  
Max Temperature 60 °F 69 °F 88 °F (1958)
Min Temperature 27 °F 45 °F 27 °F (2013)
Degree Days  
Heating Degree Days 22    
Moisture  
Dew Point 22 °F    
Average Humidity 44    
Maximum Humidity 83    
Minimum Humidity 21    
Precipitation  
Precipitation 0.00 in - - ()
Sea Level Pressure  
Sea Level Pressure 30.18 in    
Wind  
Wind Speed 7 mph (NW)    
Max Wind Speed 16 mph    
Max Gust Speed 25 mph    
Visibility 10 miles    
Events      
Averages and records for this station are not official NWS values.
T = Trace of Precipitation, MM = Missing Value Source: NWS Daily Summary

Daily Weather History Graph

Daily Weather History Graph

Search for Another Location

Airport or City:

Trip Planner

Search our weather history database for the weather conditions in past years. The results will help you decide how hot, cold, wet, or windy it might be!

Date:

Astronomy

May. 12, 2013 Rise Set
Actual Time 5:52 AM CDT 8:36 PM CDT
Civil Twilight 5:18 AM CDT 9:10 PM CDT
Nautical Twilight 4:35 AM CDT 9:53 PM CDT
Astronomical Twilight 3:46 AM CDT 10:42 PM CDT
Moon 7:46 AM CDT (5/12) 11:05 PM CDT (5/12)
Length of Visible Light 15h 51m
Length of Day
14h 44m
Waxing Crescent, 7% of the Moon is Illuminated
May 12
Waxing Crescent
May 17
First Quarter
May 24
Full
May 31
Last Quarter
Jun 8
New

Hourly Weather History & Observations

Time (CDT) Temp. Windchill Dew Point Humidity Pressure Visibility Wind Dir Wind Speed Gust Speed Precip Events Conditions
12:14 AM 39.9 °F 34.5 °F 22.3 °F 49% 30.21 in 10.0 mi WNW 8.1 mph - N/A   Clear
12:33 AM 39.4 °F 33.8 °F 22.1 °F 50% 30.22 in 10.0 mi WNW 8.1 mph - N/A   Clear
12:54 AM 38.7 °F 34.3 °F 22.8 °F 53% 30.22 in 10.0 mi WNW 5.8 mph - N/A   Clear
1:13 AM 37.8 °F 32.5 °F 22.8 °F 55% 30.22 in 10.0 mi NW 6.9 mph - N/A   Clear
1:34 AM 37.2 °F 31.9 °F 22.8 °F 56% 30.22 in 10.0 mi WNW 6.9 mph - N/A   Clear
1:54 AM 36.7 °F 32.0 °F 22.6 °F 57% 30.22 in 10.0 mi NW 5.8 mph - N/A   Clear
2:14 AM 33.6 °F 29.4 °F 22.5 °F 64% 30.23 in 10.0 mi NNW 4.6 mph - N/A   Clear
2:33 AM 34.9 °F 30.8 °F 22.8 °F 61% 30.22 in 10.0 mi WNW 4.6 mph - N/A   Clear
2:54 AM 32.2 °F 28.9 °F 22.8 °F 68% 30.22 in 10.0 mi WNW 3.5 mph - N/A   Clear
3:14 AM 31.3 °F 26.6 °F 22.6 °F 70% 30.22 in 10.0 mi WNW 4.6 mph - N/A   Clear
3:34 AM 30.7 °F - 22.6 °F 72% 30.22 in 10.0 mi Calm Calm - N/A   Clear
3:54 AM 30.6 °F 25.8 °F 23.0 °F 74% 30.22 in 10.0 mi NW 4.6 mph - N/A   Clear
4:34 AM 30.4 °F 25.6 °F 22.5 °F 72% 30.22 in 10.0 mi NW 4.6 mph - N/A   Clear
4:53 AM 28.4 °F - 23.4 °F 81% 30.22 in 10.0 mi Calm Calm - N/A   Clear
5:14 AM 30.0 °F 25.2 °F 23.4 °F 76% 30.22 in 10.0 mi West 4.6 mph - N/A   Clear
5:34 AM 29.3 °F - 23.0 °F 77% 30.22 in 10.0 mi Calm Calm - N/A   Clear
5:54 AM 28.8 °F - 23.7 °F 81% 30.23 in 10.0 mi Calm Calm - N/A   Clear
6:13 AM 27.5 °F 22.2 °F 22.8 °F 83% 30.23 in 10.0 mi West 4.6 mph - N/A   Clear
6:34 AM 29.3 °F 24.3 °F 23.9 °F 80% 30.23 in 10.0 mi WNW 4.6 mph - N/A   Clear
6:54 AM 32.7 °F 27.3 °F 24.8 °F 73% 30.23 in 10.0 mi WNW 5.8 mph - N/A   Clear
7:14 AM 34.9 °F 28.3 °F 24.4 °F 66% 30.24 in 10.0 mi WNW 8.1 mph - N/A   Clear
7:34 AM 37.0 °F 33.3 °F 25.2 °F 62% 30.24 in 10.0 mi WNW 4.6 mph - N/A   Clear
7:52 AM 38.8 °F 34.6 °F 25.3 °F 58% 30.24 in 10.0 mi NW 5.8 mph - N/A   Clear
8:13 AM 41.2 °F 36.0 °F 25.0 °F 53% 30.24 in 10.0 mi NW 8.1 mph - N/A   Clear
8:34 AM 43.0 °F 38.8 °F 24.4 °F 48% 30.25 in 10.0 mi NW 6.9 mph - N/A   Clear
8:51 AM 44.2 °F 40.3 °F 24.4 °F 46% 30.25 in 10.0 mi WNW 6.9 mph - N/A   Clear
9:13 AM 45.9 °F 40.8 °F 23.9 °F 42% 30.24 in 10.0 mi WNW 10.4 mph - N/A   Clear
9:31 AM 46.8 °F - 22.8 °F 39% 30.24 in 10.0 mi NW 8.1 mph - N/A   Clear
9:53 AM 47.3 °F - 21.4 °F 36% 30.23 in 10.0 mi NW 10.4 mph 23.0 mph N/A   Clear
10:14 AM 48.2 °F - 20.7 °F 34% 30.23 in 10.0 mi NNW 11.5 mph 21.9 mph N/A   Clear
10:34 AM 48.6 °F - 19.9 °F 32% 30.23 in 10.0 mi NNW 16.1 mph 19.6 mph N/A   Clear
10:54 AM 48.9 °F - 19.9 °F 32% 30.23 in 10.0 mi NW 13.8 mph 23.0 mph N/A   Clear
11:14 AM 49.8 °F - 19.6 °F 30% 30.23 in 10.0 mi NNW 12.7 mph 18.4 mph N/A   Clear
11:34 AM 50.5 °F - 21.2 °F 32% 30.22 in 10.0 mi WNW 12.7 mph 23.0 mph N/A   Clear
11:53 AM 51.1 °F - 19.4 °F 29% 30.22 in 10.0 mi NW 15.0 mph 20.7 mph N/A   Clear
12:14 PM 52.3 °F - 18.3 °F 26% 30.21 in 10.0 mi WNW 12.7 mph 23.0 mph N/A   Clear
12:34 PM 53.2 °F - 18.5 °F 26% 30.21 in 10.0 mi NW 13.8 mph 23.0 mph N/A   Clear
12:54 PM 53.6 °F - 17.4 °F 24% 30.20 in 10.0 mi NNW 16.1 mph 21.9 mph N/A   Clear
1:14 PM 54.1 °F - 17.2 °F 23% 30.19 in 10.0 mi NW 11.5 mph 24.2 mph N/A   Clear
1:33 PM 55.4 °F - 17.6 °F 23% 30.19 in 10.0 mi NNW 9.2 mph 23.0 mph N/A   Clear
1:54 PM 55.2 °F - 17.4 °F 23% 30.18 in 10.0 mi North 10.4 mph 18.4 mph N/A   Clear
2:14 PM 55.8 °F - 17.4 °F 22% 30.16 in 10.0 mi WNW 11.5 mph 21.9 mph N/A   Clear
2:34 PM 57.0 °F - 18.5 °F 22% 30.16 in 10.0 mi WNW 10.4 mph 19.6 mph N/A   Clear
2:54 PM 57.9 °F - 19.9 °F 23% 30.16 in 10.0 mi NW 13.8 mph 20.7 mph N/A   Clear
3:14 PM 58.3 °F - 19.8 °F 22% 30.15 in 10.0 mi NNW 5.8 mph 21.9 mph N/A   Clear
3:34 PM 57.6 °F - 18.5 °F 22% 30.15 in 10.0 mi NW 9.2 mph 25.3 mph N/A   Clear
3:54 PM 59.2 °F - 20.1 °F 22% 30.14 in 10.0 mi NW 11.5 mph 23.0 mph N/A   Clear
4:14 PM 59.0 °F - 20.3 °F 22% 30.14 in 10.0 mi NW 12.7 mph 20.7 mph N/A   Clear
4:33 PM 59.2 °F - 19.9 °F 22% 30.13 in 10.0 mi NNW 12.7 mph 21.9 mph N/A   Clear
4:54 PM 59.5 °F - 19.6 °F 21% 30.13 in 10.0 mi NNW 12.7 mph 19.6 mph N/A   Clear
5:14 PM 59.9 °F - 20.7 °F 22% 30.13 in 10.0 mi NW 11.5 mph 21.9 mph N/A   Clear
5:34 PM 59.5 °F - 21.7 °F 23% 30.12 in 10.0 mi NNW 15.0 mph 19.6 mph N/A   Clear
5:53 PM 59.7 °F - 21.6 °F 23% 30.12 in 10.0 mi NNW 13.8 mph 19.6 mph N/A   Clear
6:14 PM 59.7 °F - 20.3 °F 22% 30.11 in 10.0 mi NW 11.5 mph 17.3 mph N/A   Clear
6:33 PM 59.2 °F - 19.4 °F 21% 30.11 in 10.0 mi NW 10.4 mph - N/A   Clear
6:54 PM 58.6 °F - 18.7 °F 21% 30.11 in 10.0 mi NW 8.1 mph - N/A   Clear
7:14 PM 58.1 °F - 20.3 °F 23% 30.11 in 10.0 mi NW 9.2 mph - N/A   Clear
7:33 PM 57.6 °F - 19.9 °F 23% 30.11 in 10.0 mi NW 8.1 mph - N/A   Clear
7:54 PM 57.0 °F - 19.0 °F 23% 30.11 in 10.0 mi WNW 11.5 mph - N/A   Clear
8:14 PM 54.7 °F - 20.1 °F 26% 30.11 in 10.0 mi NW 6.9 mph - N/A   Clear
8:34 PM 51.6 °F - 21.4 °F 31% 30.11 in 10.0 mi NNW 5.8 mph - N/A   Clear
8:54 PM 46.9 °F - 24.1 °F 41% 30.11 in 10.0 mi North 3.5 mph - N/A   Clear
9:13 PM 46.9 °F - 24.1 °F 41% 30.11 in 10.0 mi Calm Calm - N/A   Clear
9:34 PM 47.5 °F - 23.0 °F 38% 30.12 in 10.0 mi North 3.5 mph - N/A   Clear
9:53 PM 45.9 °F - 23.7 °F 42% 30.12 in 10.0 mi Calm Calm - N/A   Clear
10:14 PM 45.3 °F - 29.1 °F 53% 30.12 in 10.0 mi Calm Calm - N/A   Clear
10:34 PM 42.8 °F - 30.6 °F 62% 30.12 in 10.0 mi Calm Calm - N/A   Clear
10:54 PM 41.9 °F - 29.3 °F 61% 30.11 in 10.0 mi Calm Calm - N/A   Clear
11:14 PM 41.2 °F - 25.5 °F 54% 30.11 in 10.0 mi Calm Calm - N/A   Clear
11:33 PM 39.9 °F - 25.0 °F 55% 30.11 in 10.0 mi Calm Calm - N/A   Clear
11:54 PM 40.1 °F - 28.8 °F 64% 30.11 in 10.0 mi Calm Calm - N/A   Clear